• In Hungary
  • List of Countries
  • For 7 days
  • Water Temperature
  • Satellite Maps
  • Weather Map
  • News
  • Weather Widgets
  • user-avatar
    Login

    Hourly Weather Stillwater

    Today, 18 June, Monday

    Time Temperature Precipitation Wind Pressure Humidity
    00:00 +28°C° 0 mm 5 mps 736 mmHg 76%
    01:00 +27°C° 0 mm 5 mps 736 mmHg 79%
    02:00 +26°C° 0 mm 5 mps 736 mmHg 82%
    03:00 +26°C° 0 mm 4 mps 736 mmHg 85%
    04:00 +26°C° 0 mm 4 mps 737 mmHg 86%
    05:00 +26°C° 0 mm 4 mps 737 mmHg 88%
    06:00 +25°C° 0 mm 4 mps 737 mmHg 90%
    07:00 +26°C° 0 mm 5 mps 737 mmHg 87%
    08:00 +27°C° 0 mm 5 mps 738 mmHg 83%
    09:00 +28°C° 0 mm 6 mps 738 mmHg 80%
    10:00 +29°C° 0 mm 6 mps 738 mmHg 75%
    11:00 +30°C° 0 mm 6 mps 738 mmHg 70%
    12:00 +33°C° 0 mm 6 mps 737 mmHg 65%
    13:00 +34°C° 0 mm 6 mps 737 mmHg 62%
    14:00 +34°C° 0 mm 6 mps 736 mmHg 59%
    15:00 +35°C° 0 mm 6 mps 736 mmHg 57%
    16:00 +35°C° 0 mm 6 mps 736 mmHg 59%
    17:00 +34°C° 0 mm 6 mps 736 mmHg 60%
    18:00 +34°C° 0 mm 6 mps 735 mmHg 62%
    19:00 +32°C° 0 mm 6 mps 736 mmHg 67%
    20:00 +30°C° 0 mm 6 mps 736 mmHg 72%
    21:00 +29°C° 0 mm 5 mps 736 mmHg 76%
    22:00 +28°C° 0 mm 5 mps 736 mmHg 79%
    23:00 +27°C° 0 mm 6 mps 736 mmHg 81%

    Tomorrow, 19 June, Tuesday

    Time Temperature Precipitation Wind Pressure Humidity
    00:00 +27°C° 0 mm 6 mps 736 mmHg 83%
    01:00 +26°C° 0 mm 6 mps 736 mmHg 85%
    02:00 +26°C° 0 mm 6 mps 736 mmHg 87%
    03:00 +24°C° 0 mm 6 mps 735 mmHg 89%
    04:00 +25°C° 0 mm 5 mps 736 mmHg 89%
    05:00 +25°C° 0 mm 5 mps 736 mmHg 90%
    06:00 +25°C° 0 mm 5 mps 736 mmHg 90%
    07:00 +26°C° 0 mm 5 mps 736 mmHg 86%
    08:00 +27°C° 0 mm 5 mps 737 mmHg 82%
    09:00 +27°C° 0 mm 5 mps 737 mmHg 78%
    10:00 +29°C° 0 mm 5 mps 737 mmHg 73%
    11:00 +30°C° 0 mm 5 mps 737 mmHg 67%
    12:00 +33°C° 0 mm 5 mps 736 mmHg 62%
    13:00 +33°C° 0 mm 6 mps 736 mmHg 60%
    14:00 +34°C° 0 mm 6 mps 735 mmHg 59%
    15:00 +35°C° 0 mm 7 mps 735 mmHg 57%
    16:00 +34°C° 0 mm 7 mps 734 mmHg 58%
    17:00 +34°C° 0 mm 6 mps 734 mmHg 59%
    18:00 +34°C° 0 mm 6 mps 734 mmHg 60%
    19:00 +32°C° 0 mm 7 mps 734 mmHg 64%
    20:00 +30°C° 0 mm 7 mps 734 mmHg 68%
    21:00 +29°C° 0 mm 8 mps 734 mmHg 72%
    22:00 +28°C° 0 mm 7 mps 734 mmHg 75%
    23:00 +27°C° 0 mm 7 mps 734 mmHg 78%

    Day after tomorrow, 20 June, Wednesday

    Time Temperature Precipitation Wind Pressure Humidity
    00:00 +26°C° 0 mm 6 mps 734 mmHg 82%
    01:00 +24°C° 0 mm 6 mps 733 mmHg 84%
    02:00 +24°C° 0 mm 6 mps 733 mmHg 86%
    03:00 +23°C° 0 mm 6 mps 733 mmHg 88%
    04:00 +23°C° 0 mm 5 mps 733 mmHg 87%
    05:00 +25°C° 0 mm 5 mps 733 mmHg 86%
    06:00 +25°C° 0 mm 4 mps 733 mmHg 85%
    07:00 +26°C° 0 mm 5 mps 733 mmHg 83%
    08:00 +26°C° 0 mm 6 mps 733 mmHg 80%
    09:00 +27°C° 0 mm 7 mps 733 mmHg 78%
    10:00 +29°C° 0 mm 7 mps 733 mmHg 72%
    11:00 +30°C° 0 mm 7 mps 733 mmHg 66%
    12:00 +33°C° 0 mm 7 mps 733 mmHg 60%
    13:00 +34°C° 0.5 mm 7 mps 732 mmHg 58%
    14:00 +35°C° 0.5 mm 7 mps 732 mmHg 56%
    15:00 +36°C° 0.5 mm 7 mps 731 mmHg 53%
    16:00 +35°C° 1 mm 6 mps 731 mmHg 57%
    17:00 +34°C° 1 mm 6 mps 731 mmHg 60%
    18:00 +33°C° 1 mm 5 mps 731 mmHg 63%
    19:00 +32°C° 2.4 mm 5 mps 731 mmHg 70%
    20:00 +29°C° 2.4 mm 4 mps 731 mmHg 76%
    21:00 +27°C° 2.4 mm 4 mps 731 mmHg 82%
    22:00 +27°C° 0.9 mm 4 mps 732 mmHg 85%
    23:00 +26°C° 0.9 mm 5 mps 732 mmHg 88%

    21 June, Thursday

    Time Temperature Precipitation Wind Pressure Humidity
    00:00 +26°C° 0.9 mm 5 mps 733 mmHg 90%
    01:00 +25°C° 0.7 mm 5 mps 733 mmHg 89%
    02:00 +25°C° 0.7 mm 5 mps 733 mmHg 87%
    03:00 +23°C° 0.7 mm 5 mps 733 mmHg 85%
    04:00 +22°C° 0 mm 4 mps 734 mmHg 83%
    05:00 +22°C° 0 mm 3 mps 734 mmHg 82%
    06:00 +21°C° 0 mm 3 mps 734 mmHg 80%
    07:00 +24°C° 0 mm 3 mps 734 mmHg 71%
    08:00 +26°C° 0 mm 4 mps 735 mmHg 62%
    09:00 +27°C° 0 mm 5 mps 735 mmHg 53%
    10:00 +29°C° 0 mm 5 mps 735 mmHg 48%
    11:00 +32°C° 0 mm 6 mps 735 mmHg 43%
    12:00 +33°C° 0 mm 7 mps 735 mmHg 37%
    13:00 +34°C° 0 mm 7 mps 734 mmHg 37%
    14:00 +34°C° 0 mm 7 mps 734 mmHg 38%
    15:00 +34°C° 0 mm 7 mps 733 mmHg 38%
    16:00 +34°C° 0 mm 6 mps 733 mmHg 41%
    17:00 +33°C° 0 mm 5 mps 733 mmHg 45%
    18:00 +33°C° 0 mm 5 mps 733 mmHg 48%
    19:00 +30°C° 0 mm 4 mps 733 mmHg 52%
    20:00 +28°C° 0 mm 4 mps 733 mmHg 55%
    21:00 +26°C° 0 mm 3 mps 733 mmHg 59%
    22:00 +26°C° 0 mm 3 mps 734 mmHg 63%
    23:00 +25°C° 0 mm 3 mps 734 mmHg 67%

    22 June, Friday

    Time Temperature Precipitation Wind Pressure Humidity
    00:00 +24°C° 0 mm 3 mps 734 mmHg 71%
    01:00 +24°C° 0 mm 3 mps 734 mmHg 75%
    02:00 +22°C° 0 mm 3 mps 734 mmHg 78%
    03:00 +21°C° 0 mm 3 mps 733 mmHg 82%
    04:00 +21°C° 0 mm 3 mps 734 mmHg 83%
    05:00 +21°C° 0 mm 3 mps 734 mmHg 84%
    06:00 +21°C° 0 mm 3 mps 734 mmHg 86%
    07:00 +24°C° 0 mm 3 mps 734 mmHg 78%
    08:00 +25°C° 0 mm 4 mps 734 mmHg 71%
    09:00 +27°C° 0 mm 5 mps 735 mmHg 64%
    10:00 +29°C° 0 mm 5 mps 734 mmHg 57%
    11:00 +30°C° 0 mm 5 mps 734 mmHg 50%
    12:00 +33°C° 0 mm 5 mps 734 mmHg 44%
    13:00 +34°C° 0 mm 5 mps 733 mmHg 41%
    14:00 +36°C° 0 mm 5 mps 733 mmHg 37%
    15:00 +37°C° 0 mm 5 mps 732 mmHg 34%
    16:00 +37°C° 0 mm 4 mps 732 mmHg 37%
    17:00 +37°C° 0 mm 2 mps 731 mmHg 39%
    18:00 +37°C° 0 mm 1 mps 731 mmHg 42%
    19:00 +35°C° 0.3 mm 2 mps 730 mmHg 49%
    20:00 +31°C° 0.3 mm 2 mps 730 mmHg 55%
    21:00 +28°C° 0.3 mm 3 mps 730 mmHg 62%
    22:00 +28°C° 0.2 mm 3 mps 730 mmHg 66%
    23:00 +27°C° 0.2 mm 3 mps 730 mmHg 69%

    23 June, Saturday

    Time Temperature Precipitation Wind Pressure Humidity
    00:00 +26°C° 0.2 mm 2 mps 730 mmHg 73%
    01:00 +26°C° 0.3 mm 3 mps 730 mmHg 75%
    02:00 +26°C° 0.3 mm 3 mps 730 mmHg 77%
    03:00 +26°C° 0.3 mm 3 mps 729 mmHg 79%
    04:00 +26°C° 0 mm 3 mps 729 mmHg 77%
    05:00 +26°C° 0 mm 4 mps 729 mmHg 74%
    06:00 +27°C° 0 mm 4 mps 729 mmHg 72%
    07:00 +29°C° 0 mm 5 mps 729 mmHg 65%
    08:00 +32°C° 0 mm 5 mps 729 mmHg 58%
    09:00 +35°C° 0 mm 6 mps 729 mmHg 51%
    10:00 +38°C° 0 mm 7 mps 729 mmHg 43%
    11:00 +40°C° 0 mm 8 mps 729 mmHg 36%
    12:00 +43°C° 0 mm 9 mps 729 mmHg 29%
    13:00 +44°C° 0 mm 9 mps 729 mmHg 28%
    14:00 +44°C° 0 mm 10 mps 728 mmHg 26%
    15:00 +44°C° 0 mm 10 mps 728 mmHg 25%
    16:00 +43°C° 0 mm 9 mps 728 mmHg 30%
    17:00 +41°C° 0 mm 8 mps 728 mmHg 34%
    18:00 +40°C° 0 mm 7 mps 728 mmHg 39%
    19:00 +38°C° 0 mm 8 mps 727 mmHg 43%
    20:00 +37°C° 0 mm 9 mps 727 mmHg 46%
    21:00 +34°C° 0 mm 11 mps 727 mmHg 50%
    22:00 +34°C° 0 mm 10 mps 727 mmHg 51%
    23:00 +33°C° 0 mm 10 mps 727 mmHg 52%
    Show more